Date,TemperatureHighF,TemperatureAvgF,TemperatureLowF,DewpointHighF,DewpointAvgF,DewpointLowF,HumidityHigh,HumidityAvg,HumidityLow,PressureMaxIn,PressureMinIn,WindSpeedMaxMPH,WindSpeedAvgMPH,GustSpeedMaxMPH,PrecipitationSumIn
2013-1-1,75.2,67.9,61.9,67.6,62.9,58.1,91,84,77,30.20,30.03,8,1,9,0.00
2013-1-2,81.0,70.1,62.4,68.7,64.9,60.1,94,84,60,30.06,29.96,7,1,11,0.00
2013-1-3,76.8,68.0,61.0,71.1,65.5,59.8,97,92,81,30.12,30.01,11,2,11,0.00
2013-1-4,69.9,67.5,64.5,67.7,65.9,63.0,96,95,92,30.22,30.09,13,4,14,0.00
2013-1-5,74.1,69.0,64.1,70.9,66.7,62.3,97,93,86,30.24,30.15,13,3,14,0.06
2013-1-6,74.5,70.5,66.7,72.6,69.2,65.9,98,96,93,30.18,30.04,14,1,14,0.33
2013-1-7,73.1,69.6,66.5,69.6,67.5,65.1,98,93,88,30.17,30.07,16,5,16,0.26
2013-1-8,75.7,71.2,68.6,72.1,69.3,67.0,97,94,87,30.20,30.08,9,2,10,0.01
2013-1-9,76.9,72.9,69.4,73.4,71.0,68.1,97,94,88,30.28,30.17,13,3,15,0.04
2013-1-10,76.9,72.7,70.6,72.7,69.6,68.2,95,91,83,30.29,30.19,10,3,10,0.00
2013-1-11,76.6,72.8,71.1,71.2,69.7,68.6,94,90,82,30.26,30.15,10,3,11,0.00
2013-1-12,78.0,73.5,71.2,71.7,69.5,66.8,94,88,81,30.18,30.09,8,2,10,0.00
2013-1-13,78.3,73.9,72.2,69.8,67.8,65.7,86,82,73,30.13,30.06,14,5,17,0.00
2013-1-14,78.0,74.2,71.7,70.3,68.2,65.5,85,82,77,30.17,30.11,11,4,12,0.00
2013-1-15,78.7,74.6,72.8,71.3,68.5,66.3,86,82,77,30.13,30.04,12,4,13,0.00
2013-1-16,80.6,72.4,64.1,70.8,67.9,62.6,97,86,70,30.09,29.99,10,2,11,0.00
2013-1-17,82.3,70.3,56.9,72.7,64.8,50.4,96,83,63,30.06,29.90,15,2,18,0.00
2013-1-18,69.0,59.8,45.5,63.9,53.7,40.3,92,81,70,30.22,30.06,26,6,26,0.07
2013-1-19,72.9,68.8,65.2,67.2,65.4,62.2,96,90,80,30.22,30.09,19,6,21,0.39
2013-1-20,73.2,68.9,64.3,69.4,66.6,63.4,97,93,86,30.13,30.02,12,3,14,0.01
2013-1-21,77.5,69.9,63.4,70.8,66.9,62.2,96,90,78,30.06,29.95,12,2,15,0.39
2013-1-22,68.7,65.6,63.0,62.2,57.5,52.8,96,76,67,30.23,29.99,21,7,21,0.01
2013-1-23,67.9,61.6,54.7,59.1,53.6,48.0,86,75,67,30.30,30.21,14,4,15,0.00
2013-1-24,68.3,60.7,51.4,56.4,51.7,44.8,89,73,54,30.30,30.21,10,2,10,0.00
2013-1-25,72.3,63.0,54.4,61.0,56.1,50.8,90,79,49,30.28,30.17,10,2,10,0.00
2013-1-26,70.0,63.1,53.1,61.7,56.7,47.7,92,80,66,30.25,30.14,9,2,12,0.00
2013-1-27,72.3,66.2,55.2,67.0,62.4,53.1,95,88,82,30.29,30.19,12,3,15,0.00
2013-1-28,74.9,70.7,68.6,70.9,67.4,65.1,94,90,84,30.32,30.22,13,4,14,0.16
2013-1-29,75.7,71.0,69.1,71.4,68.8,67.6,97,93,85,30.23,30.10,11,2,13,0.18
2013-1-30,76.5,72.7,67.2,71.0,67.6,64.3,93,84,77,30.10,29.92,15,3,16,0.00
2013-1-31,69.8,62.0,53.1,67.6,53.6,37.3,96,76,49,30.17,29.90,16,3,17,0.07